Resoconti di bolidi

Trovati resoconti in lavorazione: 260 Pagina 1 / 6
IDDate e tempo T.U. (Tempo Universale)Data e tempo localeRegioneCittàStatoDur.MagnitudineSuono differitoSuono contemporaneoFrag.OsservatoreLivello di esperienza
Resoconti in trattazione:
2020-08-14 00:52 UT2020-08-13 20:52 EDTUS Winter ParkFL≈1.5s -15???DiegoS 1
2020-08-13 21:15 UT2020-08-13 23:15 CESTDK Regstrup≈1.5s -20---LarsE 3
2020-08-13 21:10 UT2020-08-13 23:10 CESTDK Fredensborg≈7.5s -13--?CharlotteH 2
2020-08-13 21:00 UT2020-08-13 23:00 CESTES Ses SalinesÎles Baléares≈3.5s -16--Jean-DavidC 1
2020-08-13 20:30 UT2020-08-13 22:30 CESTIT CastelmezzanoBasilicata≈3.5s -9---Viola S 1
2020-08-13 20:00 UT2020-08-13 21:00 BSTGB England≈20s -5?--JonnyK 1
2020-08-13 12:04 UT2020-08-13 05:04 PDTUS VacavilleCA<1s -5---Harpreet S 1
2020-08-13 09:26 UT2020-08-13 04:26 CDTUS Panama CityFL<1s -22---stevenG 1
2020-08-13 08:56 UT2020-08-13 04:56 EDTUS SharkeyKY≈1.5s -6---William B 1
2020-08-13 08:29 UT2020-08-13 01:29 PDTUS SalemOR<1s -17---JerryF 3
2020-08-13 07:40 UT2020-08-13 00:40 PDTUS ModestoCA≈3.5s -9---DonD 4
2020-08-13 06:01 UT2020-08-12 20:01 HSTUS KaneoheHI≈3.5s -5---DouglasK 3
2020-08-13 06:00 UT2020-08-12 23:00 PDTUS BellinghamWA≈3.5s 0---RichS 3
2020-08-13 06:00 UT2020-08-12 23:00 PDTUS Thousand OaksCA≈3.5s -18---ChadO 3
2020-08-13 05:50 UT2020-08-12 22:50 MSTUS PhoenixAZ≈3.5s -20---JamesF 3
2020-08-13 05:49 UT2020-08-12 22:49 PDTUS FremontCA≈7.5s -6---DavidY 4
2020-08-13 05:30 UT2020-08-12 22:30 PDTUS OrindaCA<1s -10--?SeanS 1
2020-08-13 05:30 UT2020-08-13 01:30 EDTUS HomesteadFL≈3.5s -4--?AndreaR 1
2020-08-13 05:30 UT2020-08-12 22:30 PDTUS DanvilleCA≈1.5s -11---SierraG 2
2020-08-13 05:20 UT2020-08-13 01:20 EDTUS Tarpon SpringsFL≈3.5s -6--?AguyM 3
2020-08-13 05:20 UT2020-08-13 01:20 EDTUS Palm BeachFL≈3.5s -10--AnneZ 4
2020-08-13 05:14 UT2020-08-12 22:14 MSTUS Sun City WestAZ≈3.5s -5---ShawnM 4
2020-08-13 05:09 UT2020-08-13 01:09 EDTUS Fort LauderdaleFL≈7.5s -7??JuddP 4
2020-08-13 04:00 UT2020-08-12 23:00 CDTUS PortlandTX≈3.5s -5---FeliciaL 1
2020-08-13 03:58 UT2020-08-12 23:58 EDTUS ConstantiaNY<1s -15---GeraldP 2
2020-08-13 03:35 UT2020-08-12 20:35 PDTUS CarlsbadCA≈3.5s -4---MikeL 2
2020-08-13 03:34 UT2020-08-12 20:34 PDTUS San DiegoCA≈3.5s -7---RussellL 4
2020-08-13 03:34 UT2020-08-12 20:34 PDTUS San GabrielCA≈3.5s -8???AaqilK 4
2020-08-13 03:26 UT2020-08-12 23:26 EDTUS Bay VillageOH≈3.5s -9--?BrianP 3
2020-08-13 03:15 UT2020-08-12 20:15 MSTUS TucsonAZ≈3.5s -12---JenniferV 2
2020-08-13 03:15 UT2020-08-12 22:15 CDTUS KatyTX≈3.5s -7--BruceB 5
2020-08-13 03:15 UT2020-08-12 23:15 EDTUS DenverNC≈1.5s -5--JW 1
2020-08-13 03:15 UT2020-08-12 23:15 EDTUS GreensboroNC≈1.5s -14--?NancyK 2
2020-08-13 03:15 UT2020-08-12 23:15 EDTUS ChristiansburgVA≈1.5s -13--?VickiB 2
2020-08-13 03:13 UT2020-08-12 23:13 EDTUS ClemmonsNC≈1.5s -18--MariW 3
2020-08-13 03:11 UT2020-08-12 22:11 CDTUS AustinTX≈3.5s -13---BrittonT 2
2020-08-13 03:09 UT2020-08-12 23:09 EDTUS Battle CreekMI≈3.5s -4---Kathy W 4
2020-08-13 03:05 UT2020-08-12 23:05 EDTUS SanfordNC≈3.5s -18---EmaleeM 1
2020-08-13 02:55 UT2020-08-12 22:55 EDTUS ChristiansburgVA≈1.5s -13--?VickiB 2
2020-08-13 02:50 UT2020-08-12 21:50 CDTUS ChicagoIL≈3.5s -12---Heidi S 3
2020-08-13 02:48 UT2020-08-12 22:48 EDTUS Battle CreekMI≈3.5s -4---Kathy W 4
2020-08-13 02:47 UT2020-08-12 22:47 EDTUS DaytonOH≈20s -5---EmileeW 4
2020-08-13 02:40 UT2020-08-12 22:40 EDTUS MorristownVT≈3.5s -6---KarenU 4
2020-08-13 02:38 UT2020-08-12 21:38 CDTUS Strong CityKS≈7.5s -14--?BrittanyP 4
2020-08-13 02:30 UT2020-08-12 22:30 EDTCA Ontario≈3.5s -17?-JustinJ 3
2020-08-13 02:30 UT2020-08-12 22:30 EDTCA CobdenOntario≈3.5s -9???KatherineL 1
2020-08-13 02:05 UT2020-08-12 22:05 EDTUS Battle CreekMI≈7.5s -8---KathtW 4
2020-08-13 01:35 UT2020-08-12 21:35 EDTUS HebronME≈1.5s -13---AndrewL 3
2020-08-13 01:00 UT2020-08-13 02:00 WESTFO Svínoy bygdNorthern Isles≈3.5s -17---JohannaH 1
2020-08-13 00:45 UT2020-08-12 20:45 EDTUS CamdenME≈20s -11---HughB 2